TimeCDT,TemperatureF,Dew PointF,Humidity,Sea Level PressureIn,VisibilityMPH,Wind Direction,Wind SpeedMPH,Gust SpeedMPH,PrecipitationIn,Events,Conditions,WindDirDegrees,DateUTC
12:15 AM,35.6,28.4,75,29.84,7.0,East,10.4,-,N/A,,Overcast,80,2013-03-18 05:15:00
12:35 AM,35.6,28.4,75,29.82,7.0,East,9.2,-,N/A,Snow,Light Snow,80,2013-03-18 05:35:00
12:55 AM,35.6,28.4,75,29.81,7.0,East,10.4,-,N/A,,Light Drizzle,80,2013-03-18 05:55:00
1:15 AM,35.6,28.4,75,29.80,10.0,ENE,9.2,-,N/A,,Overcast,60,2013-03-18 06:15:00
1:35 AM,35.6,28.4,75,29.80,10.0,East,8.1,-,N/A,,Overcast,80,2013-03-18 06:35:00
1:55 AM,35.6,28.4,75,29.80,10.0,ENE,8.1,-,N/A,,Overcast,70,2013-03-18 06:55:00
2:15 AM,37.4,28.4,70,29.79,10.0,East,8.1,-,N/A,,Overcast,80,2013-03-18 07:15:00
2:35 AM,37.4,28.4,70,29.79,10.0,East,6.9,-,N/A,,Overcast,80,2013-03-18 07:35:00
2:55 AM,37.4,28.4,70,29.78,7.0,ENE,8.1,-,N/A,,Overcast,70,2013-03-18 07:55:00
3:15 AM,35.6,28.4,75,29.77,7.0,East,9.2,-,N/A,,Overcast,90,2013-03-18 08:15:00
3:35 AM,35.6,28.4,75,29.76,3.0,East,6.9,-,N/A,,Haze,80,2013-03-18 08:35:00
3:55 AM,35.6,28.4,75,29.76,2.0,East,6.9,-,N/A,,Haze,90,2013-03-18 08:55:00
4:15 AM,35.6,28.4,75,29.75,2.0,East,6.9,-,N/A,,Haze,80,2013-03-18 09:15:00
4:35 AM,35.6,28.4,75,29.74,2.0,East,6.9,-,N/A,,Light Drizzle,80,2013-03-18 09:35:00
4:55 AM,35.6,28.4,75,29.74,2.0,Calm,Calm,-,N/A,,Light Drizzle,0,2013-03-18 09:55:00
5:15 AM,35.6,28.4,75,29.73,1.8,Calm,Calm,-,N/A,,Light Drizzle,0,2013-03-18 10:15:00
5:35 AM,35.6,28.4,75,29.73,1.8,East,3.5,-,N/A,,Haze,80,2013-03-18 10:35:00
5:55 AM,35.6,28.4,75,29.72,2.0,Calm,Calm,-,N/A,,Haze,0,2013-03-18 10:55:00
6:15 AM,35.6,28.4,75,29.72,2.0,ENE,3.5,-,0.01,,Haze,70,2013-03-18 11:15:00
6:35 AM,35.6,28.4,75,29.73,2.5,Calm,Calm,-,0.01,Rain,Light Rain,0,2013-03-18 11:35:00
6:55 AM,35.6,28.4,75,29.73,2.5,Calm,Calm,-,0.01,,Haze,0,2013-03-18 11:55:00
7:15 AM,35.6,28.4,75,29.73,2.0,Calm,Calm,-,N/A,,Haze,0,2013-03-18 12:15:00
7:35 AM,35.6,28.4,75,29.75,2.0,Calm,Calm,-,N/A,,Haze,0,2013-03-18 12:35:00
7:55 AM,35.6,28.4,75,29.74,2.5,Calm,Calm,-,N/A,,Haze,0,2013-03-18 12:55:00
8:15 AM,35.6,28.4,75,29.74,1.0,Calm,Calm,-,N/A,,Haze,0,2013-03-18 13:15:00
8:35 AM,35.6,28.4,75,29.73,0.8,Calm,Calm,-,N/A,,Haze,0,2013-03-18 13:35:00
8:55 AM,35.6,28.4,75,29.73,1.0,Calm,Calm,-,N/A,,Haze,0,2013-03-18 13:55:00
9:15 AM,35.6,28.4,75,29.73,1.2,Calm,Calm,-,N/A,,Haze,0,2013-03-18 14:15:00
9:35 AM,35.6,28.4,75,29.73,1.0,WNW,3.5,-,N/A,,Haze,290,2013-03-18 14:35:00
9:55 AM,35.6,30.2,81,29.74,1.0,West,5.8,-,N/A,,Light Drizzle,270,2013-03-18 14:55:00
10:15 AM,37.4,30.2,75,29.74,1.2,West,8.1,-,N/A,Rain,Light Rain,260,2013-03-18 15:15:00
10:35 AM,37.4,30.2,75,29.73,2.5,West,6.9,-,N/A,Rain,Light Rain,270,2013-03-18 15:35:00
10:55 AM,37.4,30.2,75,29.74,7.0,West,9.2,-,0.01,,Overcast,270,2013-03-18 15:55:00
11:15 AM,39.2,32.0,75,29.74,7.0,West,10.4,-,N/A,,Overcast,270,2013-03-18 16:15:00
11:35 AM,39.2,32.0,75,29.74,10.0,West,11.5,17.3,N/A,,Overcast,270,2013-03-18 16:35:00
11:55 AM,39.2,32.0,75,29.73,7.0,West,12.7,-,N/A,,Overcast,280,2013-03-18 16:55:00
12:15 PM,41.0,33.8,76,29.73,10.0,West,13.8,21.9,N/A,,Overcast,280,2013-03-18 17:15:00
12:35 PM,42.8,33.8,70,29.74,10.0,West,13.8,20.7,N/A,,Overcast,280,2013-03-18 17:35:00
12:55 PM,42.8,32.0,66,29.74,10.0,WNW,19.6,25.3,N/A,,Overcast,290,2013-03-18 17:55:00
1:15 PM,42.8,32.0,66,29.75,10.0,West,23.0,27.6,N/A,,Overcast,280,2013-03-18 18:15:00
1:35 PM,42.8,32.0,66,29.75,10.0,West,19.6,26.5,N/A,,Overcast,280,2013-03-18 18:35:00
1:55 PM,44.6,32.0,61,29.75,10.0,West,18.4,-,N/A,,Mostly Cloudy,280,2013-03-18 18:55:00
2:15 PM,46.4,32.0,57,29.75,10.0,West,18.4,27.6,N/A,,Mostly Cloudy,270,2013-03-18 19:15:00
2:35 PM,48.2,28.4,46,29.74,10.0,West,24.2,31.1,N/A,,Scattered Clouds,270,2013-03-18 19:35:00
2:55 PM,48.2,28.4,46,29.74,10.0,West,18.4,26.5,N/A,,Scattered Clouds,280,2013-03-18 19:55:00
3:15 PM,48.2,21.2,34,29.75,10.0,WNW,28.8,35.7,N/A,,Scattered Clouds,290,2013-03-18 20:15:00
3:35 PM,46.4,21.2,37,29.76,10.0,WNW,24.2,32.2,N/A,,Clear,300,2013-03-18 20:35:00
3:55 PM,46.4,21.2,37,29.77,10.0,WNW,20.7,34.5,N/A,,Scattered Clouds,290,2013-03-18 20:55:00
4:15 PM,44.6,15.8,31,29.78,10.0,West,32.2,42.6,N/A,,Scattered Clouds,280,2013-03-18 21:15:00
4:35 PM,44.6,17.6,34,29.79,10.0,WNW,27.6,38.0,N/A,,Scattered Clouds,300,2013-03-18 21:35:00
4:55 PM,44.6,17.6,34,29.80,10.0,West,24.2,39.1,N/A,,Scattered Clouds,280,2013-03-18 21:55:00
5:15 PM,42.8,17.6,36,29.81,10.0,WNW,23.0,41.4,N/A,,Scattered Clouds,290,2013-03-18 22:15:00
5:35 PM,42.8,15.8,34,29.82,10.0,WNW,24.2,43.7,N/A,,Scattered Clouds,290,2013-03-18 22:35:00
5:55 PM,42.8,17.6,36,29.83,10.0,West,20.7,35.7,N/A,,Scattered Clouds,280,2013-03-18 22:55:00
6:15 PM,41.0,17.6,39,29.85,10.0,WNW,18.4,27.6,N/A,,Mostly Cloudy,290,2013-03-18 23:15:00
6:35 PM,39.2,17.6,42,29.86,10.0,WNW,21.9,28.8,N/A,,Mostly Cloudy,290,2013-03-18 23:35:00
6:55 PM,37.4,17.6,45,29.87,10.0,WNW,18.4,26.5,N/A,,Mostly Cloudy,290,2013-03-18 23:55:00
7:15 PM,35.6,17.6,48,29.89,10.0,WNW,26.5,35.7,N/A,,Mostly Cloudy,290,2013-03-19 00:15:00
7:35 PM,35.6,17.6,48,29.90,10.0,WNW,20.7,27.6,N/A,,Scattered Clouds,300,2013-03-19 00:35:00
7:55 PM,33.8,15.8,48,29.91,10.0,WNW,20.7,28.8,N/A,,Scattered Clouds,290,2013-03-19 00:55:00
8:15 PM,33.8,15.8,48,29.92,10.0,NW,15.0,26.5,N/A,,Scattered Clouds,310,2013-03-19 01:15:00
8:35 PM,33.8,15.8,48,29.93,10.0,WNW,18.4,26.5,N/A,,Clear,290,2013-03-19 01:35:00
8:55 PM,33.8,15.8,48,29.94,10.0,WNW,18.4,24.2,N/A,,Clear,290,2013-03-19 01:55:00
9:15 PM,32.0,15.8,51,29.95,10.0,WNW,15.0,21.9,N/A,,Clear,300,2013-03-19 02:15:00
9:35 PM,32.0,14.0,48,29.96,10.0,WNW,19.6,26.5,N/A,,Clear,300,2013-03-19 02:35:00
9:55 PM,30.2,15.8,55,29.97,10.0,WNW,16.1,23.0,N/A,,Clear,290,2013-03-19 02:55:00
10:15 PM,30.2,14.0,51,29.97,10.0,WNW,16.1,23.0,N/A,,Clear,290,2013-03-19 03:15:00
11:15 PM,30.2,15.8,55,29.98,10.0,West,11.5,-,N/A,,Clear,270,2013-03-19 04:15:00
11:35 PM,30.2,15.8,55,29.98,10.0,West,10.4,-,N/A,,Clear,280,2013-03-19 04:35:00
11:55 PM,30.2,15.8,55,29.98,10.0,West,10.4,-,N/A,,Clear,280,2013-03-19 04:55:00